Flag for Australia Weather past 2 weeks in Mildura, Victoria, Australia

Now
50 °F

Passing clouds.


Feels Like: 47 °F
Forecast: 41 / 60 °F
Wind: 9 mph from Southwest

Location: Mildura Airport

Current Time: Jul 31, 2015 at 12:59:47 AM

Latest Report: Jul 31, 2015 at 12:00 AM


Visibility: N/A

Pressure: 30.16 "Hg

Humidity: 73%

Dew point: 42 °F

Location of MilduraLocation

Historic Weather in Mildura — Graph

°F

Mildura temperature yesterday

Maximum temperature yesterday: 62 °F (at 5:00 PM)
Minimum temperature yesterday: 38 °F (at 3:00 AM)
Average temperature yesterday: 50 °F

Past Weeks' High & Low Weather Summary

 TemperatureHumidityPressure
High64 °F (Jul 23, 3:00 PM)99% (Jul 15, 11:00 PM)30.67 "Hg (Jul 15, 11:00 PM)
Low31 °F (Jul 20, 2:00 AM)34% (Jul 30, 4:00 PM)29.92 "Hg (Jul 24, 3:00 PM)
Average49 °F73%30.28 "Hg
* Reported Jul 15 11:00 PM — Jul 30 11:00 PM, Mildura, Weather by CustomWeather, © 2015

Note: Actual official high and low records may vary slightly from our data, if they occured in-between our weather recording intervals... More about our weather records

Advertising

Mildura weather history for previous 24 hours

 ConditionsComfort  
Time TempWeatherWind HumidityBarometerVisibility
11:00 PM
Thu, Jul 30
50 °FCool.7 mph68%30.15 "HgN/A
10:00 PM51 °FCool.6 mph61%30.13 "HgN/A
9:00 PM52 °FOvercast.7 mph52%30.12 "HgN/A
8:00 PM52 °FCool.7 mph49%30.10 "HgN/A
7:00 PM55 °FCool.6 mph45%30.08 "HgN/A
6:00 PM59 °FOvercast.6 mph39%30.07 "HgN/A
5:00 PM62 °FRefreshingly cool.10 mph34%30.06 "HgN/A
4:00 PM62 °FRefreshingly cool.13 mph34%30.06 "HgN/A
3:00 PM61 °FPartly sunny.13 mph35%30.07 "Hg25 mi
2:00 PM60 °FRefreshingly cool.16 mph38%30.09 "HgN/A
12:00 PM55 °FOvercast.13 mph47%30.17 "HgN/A
11:00 AM54 °FCool.15 mph53%30.21 "HgN/A
10:00 AM50 °FCool.14 mph58%30.23 "HgN/A
9:00 AM47 °FOvercast.13 mph64%30.22 "HgN/A
8:00 AM44 °FQuite cool.13 mph73%30.23 "HgN/A
7:00 AM42 °FQuite cool.8 mph78%30.23 "HgN/A
6:00 AM43 °FOvercast.9 mph78%30.23 "HgN/A
5:00 AM42 °FQuite cool.8 mph77%30.24 "HgN/A
4:00 AM39 °FChilly.9 mph84%30.25 "HgN/A
3:00 AM38 °FChilly.8 mph86%30.27 "HgN/A
2:00 AM39 °FChilly.6 mph81%30.29 "HgN/A
1:00 AM42 °FQuite cool.5 mph80%30.32 "HgN/A
12:00 AM47 °FOvercast.6 mph66%30.34 "HgN/A
Weather by CustomWeather, © 2015

See weather overviewHow to use our weather pages